Weather History for KPGD - August, 2013

Change the Weather History Date:

Sunday, August 18, 2013

  Actual Average Record
Temperature  
Mean Temperature 83 °F -  
Max Temperature 93 °F 88 °F 95 °F (1998)
Min Temperature 75 °F 72 °F 71 °F (1999)
Cooling Degree Days 18    
Growing Degree Days 33 (Base 50)    
Moisture  
Dew Point 75 °F    
Average Humidity 86    
Maximum Humidity 100    
Minimum Humidity 52    
Precipitation  
Precipitation 0.32 in - - ()
Sea Level Pressure  
Sea Level Pressure 30.07 in    
Wind  
Wind Speed 5 mph (East)    
Max Wind Speed 20 mph    
Max Gust Speed 25 mph    
Visibility 9 miles    
Events Rain    
Averages and records for this station are not official NWS values.
T = Trace of Precipitation, MM = Missing Value Source: NWS Daily Summary

Daily Weather History Graph

Daily Weather History Graph

Search for Another Location

Airport or City:

Trip Planner

Search our weather history database for the weather conditions in past years. The results will help you decide how hot, cold, wet, or windy it might be!

Date:

Astronomy

Aug. 18, 2013 Rise Set
Actual Time 7:01 AM EDT 8:01 PM EDT
Civil Twilight 6:36 AM EDT 8:26 PM EDT
Nautical Twilight 6:08 AM EDT 8:54 PM EDT
Astronomical Twilight 5:38 AM EDT 9:23 PM EDT
Moon 6:01 PM EDT (8/18) 4:16 AM EDT (8/18)
Length of Visible Light 13h 49m
Length of Day
13h 00m
Waxing Gibbous, 92% of the Moon is Illuminated
Aug 18
Waxing Gibbous
Aug 20
Full
Aug 28
Last Quarter
Sep 5
New
Sep 12
First Quarter

Hourly Weather History & Observations

Time (EDT) Temp. Heat Index Dew Point Humidity Pressure Visibility Wind Dir Wind Speed Gust Speed Precip Events Conditions
12:53 AM 77.0 °F - 75.0 °F 94% - 10.0 mi Calm Calm - N/A   Clear
1:53 AM 75.9 °F - 75.0 °F 97% - 10.0 mi ENE 3.5 mph - N/A   Clear
2:53 AM 75.9 °F - 75.0 °F 97% - 10.0 mi East 3.5 mph - N/A   Clear
3:53 AM 75.9 °F - 75.0 °F 97% - 10.0 mi East 4.6 mph - N/A   Clear
4:53 AM 75.9 °F - 75.0 °F 97% 30.05 in 9.0 mi Calm Calm - N/A   Unknown
5:53 AM 75.9 °F - 75.0 °F 97% 30.05 in 9.0 mi ENE 4.6 mph - N/A   Clear
6:53 AM 75.9 °F - 75.0 °F 97% 30.06 in 8.0 mi NE 3.5 mph - N/A   Clear
7:53 AM 77.0 °F - 75.9 °F 96% 30.08 in 6.0 mi East 4.6 mph - 0.01 in   Clear
8:53 AM 80.1 °F 85.8 °F 77.0 °F 90% 30.09 in 10.0 mi ESE 6.9 mph - N/A   Clear
9:53 AM 84.0 °F 92.6 °F 75.9 °F 76% 30.09 in 10.0 mi ESE 9.2 mph - N/A   Mostly Cloudy
10:04 AM 84.2 °F 92.3 °F 75.2 °F 74% 30.09 in 10.0 mi ESE 11.5 mph - N/A   Scattered Clouds
10:53 AM 87.1 °F 96.3 °F 75.0 °F 67% 30.09 in 10.0 mi East 11.5 mph - N/A   Partly Cloudy
11:53 AM 89.1 °F 98.0 °F 73.9 °F 61% 30.09 in 10.0 mi SE 11.5 mph 19.6 mph N/A   Scattered Clouds
12:53 PM 90.0 °F 97.9 °F 73.0 °F 57% 30.08 in 10.0 mi SE 10.4 mph 17.3 mph N/A   Scattered Clouds
1:53 PM 88.0 °F 96.5 °F 73.9 °F 63% 30.06 in 10.0 mi ESE 11.5 mph - N/A   Mostly Cloudy
2:53 PM 91.9 °F 99.5 °F 72.0 °F 52% 30.04 in 10.0 mi SE 4.6 mph - N/A   Partly Cloudy
3:53 PM 84.0 °F 91.9 °F 75.0 °F 74% 30.02 in 10.0 mi East 13.8 mph 21.9 mph N/A   Mostly Cloudy
4:06 PM 80.6 °F 86.2 °F 75.2 °F 84% 30.05 in 2.5 mi South 19.6 mph 25.3 mph 0.06 in Rain Light Rain
4:13 PM 78.8 °F - 75.2 °F 89% 30.05 in 10.0 mi South 11.5 mph 23.0 mph 0.07 in Rain Light Rain
4:42 PM 77.0 °F - 75.2 °F 94% 30.04 in 1.8 mi East 4.6 mph - 0.17 in Rain Heavy Rain
4:53 PM 78.1 °F - 75.9 °F 93% 30.03 in 3.0 mi South 4.6 mph - 0.22 in Rain Light Rain
5:53 PM 80.1 °F 85.8 °F 77.0 °F 90% 30.04 in 10.0 mi NNW 4.6 mph - 0.01 in   Partly Cloudy
6:01 PM 80.6 °F 86.2 °F 75.2 °F 84% 30.03 in 10.0 mi North 4.6 mph - N/A   Partly Cloudy
6:53 PM 82.0 °F 89.4 °F 75.9 °F 82% 30.05 in 10.0 mi Calm Calm - N/A   Scattered Clouds
7:53 PM 80.1 °F 85.8 °F 77.0 °F 90% 30.06 in 2.0 mi NNW 4.6 mph - 0.06 in Rain Heavy Rain
8:07 PM 78.8 °F - 71.6 °F 78% 30.07 in 9.0 mi WSW 4.6 mph - 0.02 in Rain Light Rain
8:35 PM 75.2 °F - 73.4 °F 94% 30.07 in 10.0 mi WNW 4.6 mph - 0.02 in   Mostly Cloudy
8:53 PM 75.9 °F - 73.9 °F 94% 30.08 in 10.0 mi Calm Calm - 0.02 in   Partly Cloudy
9:53 PM 77.0 °F - 75.0 °F 94% 30.11 in 10.0 mi NNW 5.8 mph - N/A   Clear
10:16 PM 75.2 °F - 75.2 °F 100% 30.11 in 10.0 mi NNW 5.8 mph - N/A   Mostly Cloudy
10:53 PM 75.9 °F - 73.9 °F 94% 30.12 in 10.0 mi NNE 6.9 mph - N/A   Mostly Cloudy
11:53 PM 75.0 °F - 73.9 °F 96% 30.12 in 10.0 mi East 3.5 mph - N/A   Mostly Cloudy